Weather in Zaoksky

Russia / Tula Oblast     54°43′57″N   37°23′51″E
temp.,
°C
wind,
m/s
gust,
m/s
humid.,
%
clouds,
%
prec.,
mm/h
press.,
hPa
HPBL,
m
6 march, sat
sat600:00−10w22880 0.0 101521
03:00−11w228913 0.0 101721
06:00−12nw239397 0.0 101625
09:00−10nw359565 0.0 1017181
12:00−6nw468455 0.0 1018731
15:00−5wnw467978 0.1 10171026
18:00−8wnw368583 0.2 1016104
21:00−11w348742 0.2 101660
7 march, sun
sun700:00−12sw479119 0.0 1014121
03:00−10sw7138919 0.0 1011329
06:00−8sw91788100 0.0 1006744
09:00−6sw101792100 0.4 10021045
12:00−3sw111892100 0.8 9971235
15:00−1wsw111893100 1.6 9951420
18:00−6wnw41275100 1.4 996486
21:00−10sw5108150 1.4 998155
8 march, mon
mon800:00−6wsw71492100 0.4 997872
03:00−7wsw61292100 0.6 997653
06:00−7w71191100 0.6 997825
09:00−10nw61294100 0.8 1000666
12:00−8wnw71086100 0.1 1003865
15:00−6wnw61083100 0.3 10051131
18:00−8wnw4888100 0.2 1008279
21:00−11nw359497 0.2 101188
9 march, tue
tue900:00−14nnw239783 0.0 101322
03:00−15nnw229887 0.1 101420
06:00−16n239798 0.0 101627
09:00−15n249499 0.0 1017220
12:00−11nnw3482100 0.0 1018591
15:00−10nnw3582100 0.1 1019926
18:00−12nnw2392100 0.1 102051
21:00−16nnw2296100 0.1 102221
10 march, wed
wed1000:00−19nnw129964 0.0 102420
03:00−21ene0010048 0.0 102420
06:00−18sse2296100 0.0 102449
09:00−15sse4695100 0.4 1023235
12:00−11s4593100 0.8 1023421
15:00−9se3492100 1.2 1021364
18:00−10e5894100 0.3 1021281
21:00−13ese5995100 0.4 1022237